Temp
64 64 63 63 63 63 64 64 64 64 64 64 64 64 64 64 64 71 79 88 85 82 86 88 86 80 81 72 71 72 60 60 73 76 78 87 84 89 89 81 83 82 74 74 76
63 63 63 63 63 63 63 63 63 64 64 63 64 64 64 64 69 79 88 84 83 82 91 79 71 83 70 72 70 65 61 74 85 85 82 86 85 86 84 81 79 74 76 77 77
63 63 62 62 63 63 63 63 63 63 63 63 63 64 64 64 72 87 84 83 83 83 93 84 79 79 71 70 70 71 64 88 89 91 89 86 86 91 79 72 74 69 72 75 74
63 62 62 62 63 62 62 63 63 62 63 63 63 64 64 68 72 90 82 82 83 88 91 81 82 70 68 66 77 66 75 92 92 93 88 86 91 87 84 78 80 76 75 75 74
62 62 62 62 61 61 62 62 62 62 62 63 64 64 68 72 83 87 83 82 85 88 88 89 72 73 68 73 76 70 75 87 93 94 90 93 79 83 79 81 80 78 77 75 76
62 62 61 61 61 62 62 61 61 62 62 63 64 64 65 71 97 89 89 86 91 88 90 92 91 92 84 83 80 83 74 71 79 90 90 84 83 84 81 81 78 77 75 76 77
62 61 61 61 61 61 61 61 61 61 62 63 65 72 75 80 100 95 96 90 93 94 89 99 98 90 89 82 92 83 73 74 79 80 84 84 75 78 82 82 77 77 77 78 79
61 61 61 61 61 61 60 60 61 62 63 64 66 69 70 98 99 100 97 96 98 99 98 98 99 92 85 86 86 77 76 68 79 76 82 75 64 78 84 80 77 78 79 80 80
61 61 60 60 60 60 59 60 61 64 65 66 62 62 75 91 89 98 98 97 98 98 97 106 96 86 87 77 74 74 64 68 72 84 79 75 65 80 84 82 78 79 81 81 81
61 60 60 59 59 59 59 59 66 63 67 79 84 71 82 88 92 98 100 101 95 95 93 90 85 77 80 71 62 68 64 68 67 79 80 72 70 77 84 83 80 80 81 82 82
60 60 59 59 59 58 61 69 71 68 74 78 78 83 90 94 98 94 100 95 91 87 76 84 73 70 77 82 84 77 73 69 76 83 80 72 71 70 72 78 81 81 82 82 83
60 59 59 59 58 58 57 73 82 87 76 86 90 91 95 94 86 93 97 84 82 76 81 76 70 82 87 86 82 79 76 74 77 85 82 76 65 66 74 76 77 82 83 84 85
59 59 58 58 58 55 72 83 95 96 76 84 91 90 90 91 88 87 92 87 82 77 79 71 80 91 86 80 79 76 69 75 75 80 84 73 67 66 70 78 84 85 88 87 87
59 58 57 57 60 83 84 90 93 96 67 79 82 90 92 92 85 99 96 88 82 78 80 77 87 86 80 79 76 63 83 84 82 71 64 76 57 64 66 73 81 84 88 89 88
59 57 56 55 60 79 93 99 97 88 55 86 84 99 92 85 86 89 98 89 80 82 75 77 81 77 78 80 83 75 86 82 81 71 65 71 63 61 70 70 75 84 87 91 91
58 57 56 59 64 80 91 98 92 66 60 82 89 84 82 86 86 92 90 90 90 82 82 80 89 81 79 86 85 88 81 78 75 66 56 66 63 60 63 70 78 85 87 89 91
57 55 54 75 83 94 98 89 66 60 84 82 80 85 82 80 84 86 81 75 71 62 66 79 81 84 86 74 82 79 65 55 55 55 58 63 65 63 75 81 83 84 89 88 92
55 53 61 79 90 93 90 74 60 80 80 84 85 84 81 84 80 84 78 73 81 75 69 71 63 78 86 74 69 73 63 56 48 52 58 66 60 68 83 88 84 90 88 89 87
55 72 81 89 85 86 77 65 68 79 88 86 84 79 77 84 79 79 77 74 78 79 65 66 70 84 88 83 77 72 64 70 61 58 59 67 68 78 84 83 84 87 89 88 88
65 82 91 102 99 89 73 64 77 88 90 87 75 81 77 80 78 75 78 80 82 85 78 73 64 80 83 84 84 73 75 63 60 50 50 58 61 62 72 76 81 83 84 86 88
71 80 97 105 101 80 69 76 86 93 91 83 80 78 79 79 78 78 80 82 87 84 83 75 68 71 78 77 72 71 67 66 63 61 52 53 60 71 74 78 79 81 83 82 80
76 75 99 103 77 79 77 84 78 89 90 86 85 82 79 81 77 77 77 79 88 84 71 75 68 61 70 80 84 73 66 66 56 57 58 57 62 77 78 82 82 82 81 82 75
69 79 100 99 72 77 84 89 89 86 87 87 85 86 84 78 70 78 82 88 88 80 69 74 64 55 62 69 77 71 73 67 69 63 57 54 59 76 70 73 78 81 79 80 74
69 73 87 87 86 82 80 81 84 93 87 86 83 84 80 76 78 74 79 87 88 82 78 76 65 61 55 62 69 69 75 73 65 57 58 59 62 69 73 75 81 81 80 80 81
75 77 77 72 76 79 84 81 82 82 87 86 80 82 78 68 74 74 81 81 84 76 78 74 62 63 70 75 76 74 75 76 66 66 57 66 65 72 73 74 79 82 84 84 82
71 69 75 72 79 79 77 77 81 85 84 80 78 85 82 71 72 71 75 74 72 74 70 74 63 62 63 74 74 71 75 75 75 75 70 69 69 76 77 78 79 82 84 82 82
75 77 71 67 75 76 77 80 84 85 85 88 86 81 78 80 82 81 80 79 74 70 71 69 64 61 54 69 69 62 70 73 72 75 71 64 69 77 78 70 67 73 80 79 79
MSLP
1014.29 1013.94 1013.64 1013.28 1012.86 1012.59 1012.26 1011.93 1011.67 1011.36 1011.02 1010.68 1010.29 1010.05 1009.82 1009.39 1008.41 1007.95 1006.70 1004.88 1005.34 1006.14 1006.82 1008.90 1009.87 1010.37 1010.19 1011.55 1012.54 1012.99 1010.96 1007.92 1004.88 1003.48 1002.84 1002.51 1002.90 1003.47 1004.25 1005.85 1006.50 1007.66 1009.01 1010.79 1012.25
1014.15 1013.81 1013.48 1013.10 1012.66 1012.30 1012.05 1011.74 1011.44 1011.16 1010.86 1010.54 1010.21 1010.00 1009.77 1009.47 1008.45 1006.12 1003.89 1004.20 1004.69 1005.78 1006.86 1007.90 1009.29 1010.10 1010.56 1011.68 1012.16 1010.87 1009.66 1005.58 1003.00 1002.11 1002.07 1002.16 1002.76 1003.09 1004.12 1005.85 1006.84 1008.48 1009.70 1011.24 1012.13
1013.88 1013.59 1013.31 1012.91 1012.43 1012.07 1011.77 1011.53 1011.21 1010.90 1010.70 1010.40 1010.10 1009.84 1009.66 1009.46 1008.16 1004.12 1003.63 1004.17 1004.82 1005.51 1006.40 1007.37 1008.16 1008.58 1009.56 1009.55 1010.62 1009.60 1007.79 1003.06 1002.09 1001.23 1001.49 1001.89 1002.41 1002.79 1004.36 1006.24 1007.18 1008.71 1010.23 1011.34 1012.02
1013.75 1013.31 1012.99 1012.65 1012.24 1011.85 1011.54 1011.24 1011.01 1010.73 1010.52 1010.29 1009.90 1009.69 1009.44 1009.09 1006.70 1003.61 1003.68 1004.30 1004.86 1005.38 1006.85 1007.06 1007.01 1007.78 1008.95 1009.14 1006.66 1007.30 1004.98 1002.13 1001.41 1001.03 1001.56 1001.73 1002.04 1002.64 1003.89 1005.96 1007.31 1008.86 1010.08 1011.14 1011.95
1013.59 1013.15 1012.78 1012.40 1012.03 1011.65 1011.26 1010.97 1010.80 1010.56 1010.38 1010.14 1009.86 1009.60 1008.70 1007.98 1004.82 1003.09 1003.55 1004.25 1004.79 1005.06 1004.93 1004.93 1005.76 1006.59 1006.81 1007.03 1005.39 1006.78 1005.39 1002.94 1001.42 1000.94 1001.31 1001.60 1002.86 1003.38 1005.20 1006.67 1008.00 1009.36 1010.36 1011.20 1011.52
1013.45 1013.00 1012.60 1012.20 1011.81 1011.36 1011.00 1010.74 1010.54 1010.42 1010.21 1010.01 1009.77 1009.55 1008.99 1006.39 1002.62 1002.75 1003.33 1004.05 1003.95 1004.29 1003.60 1003.59 1003.21 1002.35 1002.96 1004.03 1005.14 1005.19 1004.03 1005.73 1004.56 1001.99 1001.86 1002.47 1003.26 1003.89 1005.85 1006.81 1008.40 1009.42 1010.32 1010.95 1011.29
1013.25 1012.76 1012.38 1012.01 1011.59 1011.17 1010.80 1010.50 1010.29 1010.19 1010.05 1009.85 1009.66 1009.19 1007.59 1004.18 1002.05 1002.11 1002.64 1003.05 1003.16 1003.12 1002.82 1001.84 1001.43 1001.68 1001.97 1002.79 1003.13 1003.73 1004.63 1004.42 1004.60 1004.45 1002.81 1002.59 1003.76 1004.85 1005.42 1006.24 1007.90 1009.21 1009.95 1010.59 1010.95
1013.04 1012.51 1012.15 1011.73 1011.32 1010.88 1010.55 1010.23 1009.96 1009.79 1009.71 1009.59 1009.44 1008.74 1005.98 1001.75 1001.57 1001.73 1001.87 1002.04 1002.08 1001.94 1001.88 1001.33 1000.95 1001.25 1001.53 1001.97 1002.24 1003.07 1004.48 1005.09 1004.39 1005.10 1003.13 1002.61 1004.70 1004.61 1005.56 1005.93 1007.10 1008.29 1009.18 1009.70 1010.20
1012.86 1012.34 1011.92 1011.48 1011.04 1010.62 1010.23 1009.86 1009.49 1009.25 1009.28 1009.34 1009.11 1008.10 1004.36 1001.38 1001.39 1001.14 1001.08 1001.37 1001.24 1001.19 1001.09 1000.86 1000.74 1001.12 1000.96 1001.94 1002.19 1003.41 1004.89 1004.27 1004.50 1003.62 1004.25 1003.54 1003.58 1003.11 1004.21 1005.76 1006.39 1007.02 1008.05 1008.68 1009.11
1012.63 1012.11 1011.67 1011.31 1010.81 1010.39 1009.86 1009.53 1008.92 1008.94 1008.80 1008.45 1007.62 1006.87 1003.30 1001.37 1000.84 1000.75 1000.69 1000.86 1001.07 1000.94 1000.89 1000.72 1000.79 1001.05 1000.84 1001.76 1002.12 1002.47 1004.42 1004.29 1004.01 1002.98 1003.28 1003.41 1003.35 1003.20 1004.23 1004.70 1005.53 1006.32 1006.90 1007.47 1007.90
1012.38 1011.86 1011.45 1011.08 1010.72 1010.39 1009.60 1008.87 1009.06 1008.27 1007.26 1005.54 1004.47 1003.22 1001.30 1000.79 1000.36 1000.47 1000.42 1000.80 1001.01 1001.19 1001.34 1000.75 1001.25 1001.03 1000.42 1000.23 1000.22 1001.04 1002.44 1002.91 1002.15 1000.70 1001.93 1002.96 1004.83 1007.46 1006.37 1006.05 1005.53 1005.54 1005.94 1006.11 1006.32
1012.20 1011.62 1011.24 1010.82 1010.65 1010.47 1010.45 1008.46 1005.51 1003.37 1003.95 1003.31 1002.64 1002.05 1000.76 1000.13 1000.44 1000.37 1000.38 1001.10 1001.38 1001.57 1001.12 1001.12 1000.76 999.86 999.39 999.40 999.84 1000.23 1000.61 1000.98 1001.10 1000.17 999.89 1002.42 1005.47 1005.93 1005.92 1004.69 1004.24 1004.39 1004.58 1004.79 1005.20
1011.99 1011.44 1011.00 1010.57 1010.36 1010.42 1008.72 1006.21 1003.39 1002.63 1002.77 1001.99 1001.41 1000.83 1000.16 1000.08 999.95 1000.06 1000.41 1000.93 1001.33 1001.53 1001.10 1000.74 999.72 999.01 998.87 999.08 999.61 999.78 999.96 999.66 999.63 999.62 1000.03 1002.51 1005.52 1006.68 1005.05 1002.22 1002.53 1003.03 1002.91 1003.41 1003.69
1011.80 1011.24 1010.85 1010.34 1010.29 1007.87 1006.35 1003.48 1003.07 1002.51 1002.51 1001.22 1000.60 999.64 999.65 999.61 999.60 999.56 1000.04 1000.67 1000.67 1000.79 1000.53 999.89 998.66 998.60 998.63 998.98 999.10 999.41 999.01 999.04 999.25 999.89 1000.68 1000.76 1005.07 1005.86 1004.57 1003.08 1001.98 1001.51 1001.96 1002.01 1002.36
1011.47 1010.92 1010.62 1010.62 1009.67 1007.24 1004.06 1002.72 1002.42 1002.55 1001.95 1000.07 999.40 998.84 998.91 999.65 999.37 999.46 999.64 1000.09 1000.57 1000.52 1000.39 999.77 998.84 998.44 998.64 998.69 998.68 999.01 998.76 999.18 999.54 1000.13 1000.98 1001.00 1003.59 1004.18 1003.72 1003.21 1001.42 1000.31 1000.09 1000.54 1001.05
1010.88 1010.42 1010.23 1010.08 1009.15 1005.39 1003.83 1003.10 1002.55 1002.69 1000.37 999.04 998.95 998.94 999.15 999.01 999.26 999.36 999.62 999.75 999.90 1000.20 999.98 999.46 998.53 998.33 998.31 998.45 998.59 998.76 999.02 999.33 999.71 1000.63 1002.14 1001.41 1002.38 1003.76 1003.28 1001.97 1000.86 1000.04 999.65 999.36 1000.19
1010.02 1009.73 1009.89 1007.99 1005.87 1003.93 1003.48 1003.15 1002.95 1001.60 998.62 998.91 998.78 998.59 998.81 999.03 999.07 999.24 999.60 999.91 1000.03 1000.25 1000.33 999.26 998.50 997.98 998.04 998.38 998.50 998.90 999.42 1000.44 1001.16 1001.89 1002.59 1001.56 1001.72 1001.31 1000.98 1000.34 1000.10 999.31 998.82 999.04 999.51
1008.77 1008.64 1007.43 1006.39 1004.49 1004.31 1004.02 1003.72 1002.62 999.63 998.58 998.36 998.16 998.05 998.27 998.49 998.68 998.99 999.37 999.77 999.57 1000.04 999.82 999.33 998.56 998.03 997.96 998.14 998.64 999.08 999.80 1001.10 1001.98 1002.41 1001.83 1001.18 1001.07 1000.50 999.52 999.11 998.86 998.67 998.72 998.84 999.03
1007.71 1006.91 1006.23 1003.90 1003.96 1004.66 1004.55 1003.37 1001.41 999.49 998.82 998.47 998.10 998.02 998.08 998.27 998.69 998.71 998.75 999.01 999.24 999.35 1000.18 1000.03 999.29 998.15 997.86 997.91 998.59 998.99 999.80 1000.15 1001.43 1001.66 1002.36 1001.73 1001.20 1000.14 999.85 999.39 999.41 999.16 999.35 999.27 999.10
1008.79 1006.36 1003.86 1002.07 1002.55 1003.53 1003.77 1002.55 1001.13 999.42 999.10 998.77 998.67 998.18 998.27 998.48 998.65 998.58 998.68 998.65 999.12 999.43 999.76 1000.37 1000.27 999.00 998.40 998.05 998.29 998.97 999.48 1000.34 1001.74 1003.16 1003.09 1003.27 1001.95 1001.41 1000.62 1000.40 1000.13 1000.14 1000.22 1000.21 1000.26
1008.56 1005.63 1001.70 1001.14 1001.71 1002.75 1002.94 1001.89 1000.03 999.17 999.17 999.16 998.93 998.90 998.94 998.75 998.61 998.75 999.01 999.44 999.34 999.76 1000.07 1000.81 1001.08 1000.43 999.40 999.02 998.87 999.44 999.93 1000.90 1001.96 1003.01 1003.57 1003.51 1002.81 1001.29 1001.02 1000.97 1001.14 1001.29 1001.42 1001.56 1003.03
1008.73 1005.35 1001.03 1000.58 1001.72 1001.77 1001.75 1000.91 999.70 999.27 999.00 999.03 999.06 999.24 999.34 999.49 999.40 999.54 999.85 999.91 1000.03 1000.35 1001.43 1001.76 1002.03 1002.06 1000.88 999.66 999.35 999.47 1000.06 1000.92 1002.76 1003.32 1003.12 1003.00 1002.88 1002.19 1002.08 1001.67 1001.30 1001.31 1001.82 1002.35 1003.81
1010.39 1005.78 1001.08 1000.70 1001.70 1001.82 1001.10 1000.12 999.32 999.29 999.10 999.16 999.33 999.65 999.84 1000.10 1000.27 1000.05 1000.08 1000.14 1000.35 1001.02 1002.11 1002.54 1002.85 1003.35 1002.17 1000.80 1000.40 1000.17 1000.33 1000.85 1001.70 1002.57 1003.35 1003.53 1002.93 1002.41 1002.08 1001.38 1002.19 1001.47 1001.84 1002.41 1004.12
1011.12 1006.62 1002.99 1001.59 1001.51 1002.10 1001.52 1000.60 999.81 999.17 999.39 999.60 999.97 1000.18 1000.46 1000.73 1000.46 1000.55 1000.37 1000.46 1000.62 1001.38 1002.08 1002.54 1003.27 1003.98 1003.64 1002.92 1002.00 1001.34 1001.05 1001.23 1001.97 1003.06 1003.16 1003.15 1002.73 1002.59 1002.75 1002.22 1001.55 1001.57 1002.08 1002.46 1004.10
1010.51 1007.62 1006.54 1004.62 1003.72 1003.52 1002.35 1001.56 1000.87 1000.00 999.72 999.72 1000.12 1000.63 1000.78 1001.13 1001.05 1001.00 1000.85 1000.61 1001.15 1001.64 1002.12 1002.72 1003.48 1003.61 1003.43 1002.80 1002.22 1001.78 1001.47 1001.42 1001.93 1002.32 1002.77 1002.23 1002.25 1001.91 1001.75 1001.85 1001.87 1001.59 1001.66 1002.27 1003.22
1010.97 1009.92 1008.33 1007.05 1005.46 1004.30 1003.11 1002.36 1001.62 1000.84 1000.33 1000.21 1000.38 1000.54 1000.94 1001.40 1001.69 1001.73 1001.68 1001.59 1001.82 1002.25 1002.46 1002.71 1003.47 1003.66 1003.82 1003.26 1002.74 1002.13 1001.46 1001.13 1001.12 1001.31 1001.48 1001.58 1001.66 1001.01 1000.46 1001.24 1001.67 1001.76 1001.85 1002.34 1002.69
1012.51 1011.23 1010.01 1008.09 1006.50 1005.44 1003.92 1002.97 1001.90 1001.17 1000.90 1000.77 1000.78 1000.99 1001.44 1001.86 1001.96 1002.05 1001.99 1002.10 1002.20 1002.50 1002.92 1003.23 1003.61 1004.26 1004.40 1003.87 1003.20 1002.57 1001.36 1000.92 1000.54 1000.66 1001.22 1001.81 1001.62 1001.34 1002.11 1004.03 1004.17 1002.96 1002.39 1003.39 1003.78
Wind_Speed
15 14 13 13 14 13 13 14 14 15 14 15 16 14 14 16 19 4 5 3 8 19 13 15 14 6 4 7 6 1 4 6 5 8 6 10 11 14 17 15 10 11 14 23 18
16 15 14 13 14 14 13 14 15 15 15 15 15 15 14 14 6 9 5 8 18 18 14 26 16 4 4 5 6 5 6 12 12 8 13 14 10 12 12 15 14 20 25 23 20
17 16 15 14 14 14 14 14 15 15 15 15 15 15 13 12 5 1 6 12 15 14 15 23 23 15 2 4 9 8 8 7 13 12 16 12 11 12 21 13 19 27 24 21 18
18 17 16 15 15 14 14 14 14 15 15 14 15 14 14 4 2 2 5 6 9 9 15 15 10 9 5 2 6 9 29 13 11 10 12 7 10 6 12 14 24 23 23 19 17
18 17 16 16 15 15 15 14 13 15 15 14 13 13 5 3 9 7 10 7 8 6 12 15 6 10 11 11 15 4 12 21 2 10 15 8 11 14 22 24 24 23 21 18 15
19 16 17 17 15 15 14 13 13 14 15 13 12 14 2 5 3 10 9 9 9 9 10 15 12 7 7 6 12 10 30 31 19 8 10 8 5 14 21 27 25 23 20 18 17
19 18 17 17 16 15 14 14 14 14 14 13 10 6 5 14 6 12 10 7 8 11 15 11 10 9 9 3 2 15 15 12 13 15 4 6 6 9 24 23 26 22 19 18 17
20 19 18 16 16 15 14 14 15 15 13 12 7 4 9 9 11 7 11 9 11 12 13 9 12 9 5 2 4 8 5 2 8 16 4 11 4 5 12 25 24 23 20 21 21
21 20 18 16 15 14 14 15 16 13 10 7 3 3 9 1 3 9 6 8 10 11 10 13 7 7 10 1 7 6 4 16 11 7 7 3 9 10 10 20 23 22 20 20 20
22 20 18 15 14 14 16 10 6 11 5 8 9 5 7 10 7 9 11 9 8 7 7 8 7 6 8 3 7 5 8 10 9 5 12 9 8 2 4 12 24 22 20 19 19
22 20 18 14 12 12 12 2 2 1 5 10 8 6 2 7 6 3 6 6 4 8 6 10 3 8 13 7 5 8 15 11 12 13 20 13 18 16 23 9 14 19 20 21 22
23 20 17 14 10 9 5 4 10 5 7 17 18 15 11 6 4 8 6 3 6 9 9 7 9 13 9 4 8 8 9 8 8 15 3 16 15 21 15 8 9 14 21 22 21
24 20 17 14 10 3 6 11 12 11 4 5 9 7 8 6 10 10 10 8 9 9 12 7 13 10 6 8 8 9 6 8 4 1 3 19 9 6 9 6 12 9 20 20 22
24 20 16 12 4 4 6 12 15 6 2 7 7 7 5 6 8 12 10 9 6 11 9 8 10 4 6 6 6 6 8 9 9 6 4 5 4 6 8 10 4 5 23 20 20
25 20 12 5 8 4 10 8 4 2 3 10 5 7 5 8 6 6 10 7 12 13 4 15 8 2 7 5 7 6 10 7 8 7 5 11 7 3 2 8 11 9 12 22 22
22 16 11 4 4 12 13 15 5 0 6 7 7 8 6 9 4 7 7 6 7 9 12 12 8 2 5 7 7 10 10 8 9 2 6 10 8 5 5 10 4 7 7 10 18
23 14 5 6 6 7 10 5 2 4 3 9 8 10 11 9 7 7 8 6 6 3 8 14 11 7 4 4 8 8 2 5 8 4 5 4 7 10 15 11 10 9 7 10 17
28 13 12 8 7 8 6 3 5 12 8 2 4 3 10 9 8 10 9 8 13 6 5 8 1 6 6 1 3 8 3 4 4 3 7 8 7 3 5 9 2 6 3 3 9
30 4 4 7 13 4 2 3 5 7 12 11 5 5 6 5 0 4 8 2 4 7 4 6 5 3 5 1 3 7 6 6 2 5 7 4 2 6 11 7 5 8 7 6 8
5 4 9 12 12 5 1 7 9 5 9 10 8 7 8 9 7 6 5 4 6 6 5 8 7 7 5 5 7 6 2 9 6 3 4 3 5 3 6 7 8 8 8 8 10
3 3 8 7 8 1 5 9 14 9 5 6 9 9 11 7 6 8 6 10 9 8 10 8 7 12 7 5 4 2 6 5 2 3 3 4 3 1 5 8 8 7 6 8 19
5 4 3 5 1 4 7 9 2 5 3 4 4 5 7 10 9 9 7 5 7 8 4 6 3 6 9 6 6 3 2 1 6 9 3 5 6 3 7 10 6 7 5 8 8
6 5 7 4 3 6 9 12 3 2 5 7 6 8 7 6 6 8 8 7 8 6 3 6 4 5 12 8 9 4 4 5 6 5 5 4 5 6 8 7 14 7 4 1 12
4 5 6 2 4 7 11 8 12 7 2 2 5 8 6 6 7 5 4 4 6 7 6 5 1 6 7 9 5 9 10 6 5 4 6 1 2 2 9 13 7 6 7 4 15
3 4 4 6 9 16 14 9 14 11 3 4 3 5 7 4 8 6 7 4 8 9 5 3 3 5 8 9 8 9 10 8 5 8 3 10 5 8 9 10 9 8 6 6 6
4 5 7 8 9 12 10 7 10 13 10 4 1 4 8 5 6 6 9 7 4 3 3 2 5 4 5 8 9 6 9 10 9 8 7 6 7 7 5 9 7 7 8 8 7
6 6 3 7 8 8 8 16 11 6 7 7 7 6 6 7 8 8 7 6 5 5 7 5 3 2 5 7 9 8 10 7 3 7 5 6 6 7 11 19 13 8 3 14 12
Wind_Direction
335 331 329 324 320 319 316 315 314 314 312 312 314 319 323 321 307 191 244 199 175 175 117 102 72 125 259 102 101 68 296 288 158 135 139 112 90 99 125 135 166 173 143 153 151
336 331 328 323 318 315 315 314 312 310 311 313 314 321 324 330 289 247 191 128 134 158 130 105 83 53 343 48 106 198 192 205 138 167 117 113 135 146 116 133 93 92 114 138 150
335 331 328 323 317 314 312 310 308 307 308 312 317 320 320 319 295 252 139 136 150 165 115 125 151 167 177 203 172 185 253 128 119 127 122 141 171 161 124 125 134 136 138 147 156
337 332 328 322 316 312 309 307 306 306 308 312 317 321 316 257 323 101 150 132 136 195 160 154 206 66 167 182 206 188 226 125 125 128 121 158 163 103 131 136 134 136 143 153 165
336 332 327 323 317 313 307 305 305 304 306 312 320 327 338 229 250 129 129 133 154 194 223 223 179 148 165 202 244 266 292 11 105 133 131 109 41 105 114 125 130 135 148 162 168
337 333 327 321 316 310 306 304 304 304 304 310 318 317 229 247 154 133 165 146 179 194 242 241 258 310 321 55 156 159 90 308 326 73 78 83 58 116 128 130 135 146 159 169 178
337 333 328 320 317 313 309 305 304 302 300 303 310 300 262 244 159 168 172 193 204 218 246 295 326 336 324 349 77 61 94 186 300 282 125 123 29 105 141 139 145 156 166 174 180
336 333 326 321 319 315 307 300 298 295 291 287 281 272 252 280 233 237 181 215 217 242 259 296 291 296 280 69 10 103 81 139 359 272 289 90 325 267 155 148 153 161 172 178 186
336 331 324 322 318 312 306 300 292 285 262 266 239 232 267 251 235 248 241 227 238 232 249 261 279 252 282 185 344 63 77 46 333 271 252 84 231 195 167 164 161 167 177 180 186
336 330 324 323 319 314 306 279 292 306 219 212 260 288 266 237 211 218 234 238 268 294 272 259 253 271 282 106 237 190 119 95 285 275 185 207 228 265 203 167 168 172 179 182 186
337 331 324 323 321 320 326 241 318 311 256 206 194 244 205 219 74 273 197 238 305 300 280 275 276 250 254 267 263 205 143 170 231 259 213 213 71 47 12 9 175 175 182 186 191
338 332 326 323 317 323 290 252 247 297 265 232 256 230 270 137 180 233 162 223 223 252 263 294 258 259 268 307 8 351 307 218 207 256 120 97 101 170 169 183 192 203 186 189 188
338 332 326 318 318 275 226 248 265 311 291 190 231 232 231 217 234 202 162 215 250 258 261 239 258 285 354 13 335 287 278 307 245 289 34 116 121 279 200 216 157 210 197 187 188
338 333 325 321 318 272 235 242 244 329 316 175 216 243 206 219 267 162 172 202 263 240 273 254 269 334 355 298 275 284 328 339 339 26 227 159 106 241 280 294 295 216 189 190 184
333 328 320 272 309 268 289 322 349 11 293 177 179 164 197 199 153 203 173 223 245 269 323 266 318 42 3 298 5 282 289 302 300 289 333 303 96 292 329 265 269 275 181 187 185
325 322 322 181 231 249 298 292 336 319 247 142 142 182 225 239 144 151 171 228 266 286 295 270 279 186 205 314 303 280 289 280 258 185 18 270 117 279 202 227 272 269 270 183 176
323 310 265 309 234 320 302 307 318 219 157 147 181 174 199 220 164 163 188 223 214 231 261 259 240 242 141 274 304 337 320 326 1 2 182 151 83 218 209 236 245 202 176 203 176
322 315 206 229 263 315 304 326 266 293 93 114 187 257 193 178 173 198 190 221 243 252 322 1 216 141 184 129 11 305 38 130 321 321 254 170 174 275 149 185 330 114 31 67 170
315 185 233 234 219 222 284 298 268 2 3 351 295 217 195 129 220 202 237 207 115 41 34 3 338 163 127 198 80 304 13 256 324 312 74 79 23 45 159 208 95 55 40 356 312
315 275 257 237 168 198 286 260 288 5 20 337 330 347 351 152 193 211 206 74 90 72 51 308 352 342 222 207 226 198 269 358 0 7 339 20 44 166 71 72 81 54 15 322 322
252 274 253 188 164 223 240 261 286 82 65 328 341 341 338 9 38 337 63 27 35 31 35 2 32 302 17 352 128 322 2 354 90 114 201 117 285 109 96 79 87 65 359 7 27
317 290 233 175 185 229 259 270 242 307 67 266 324 296 2 8 2 3 69 85 41 40 29 15 293 328 295 274 63 58 327 0 114 299 282 140 252 95 31 51 104 101 46 24 88
319 270 287 165 238 275 297 323 116 313 342 352 348 11 18 359 5 0 5 117 82 85 83 345 344 355 340 357 9 340 54 14 5 35 305 55 259 47 88 106 261 124 145 81 127
288 304 324 282 224 312 293 330 333 151 157 310 357 342 329 300 292 196 294 111 145 115 138 106 242 197 221 251 316 344 344 6 51 19 290 162 333 139 164 191 202 153 175 151 122
227 323 36 324 340 324 327 351 327 326 207 179 102 289 295 294 314 325 352 347 71 166 175 156 246 287 315 326 322 309 305 306 308 261 269 286 302 225 220 189 208 171 146 110 116
7 354 344 293 300 313 294 282 266 282 299 349 297 339 353 4 359 355 13 11 49 229 301 299 280 322 312 309 325 319 321 315 276 265 251 251 292 313 281 152 152 174 150 158 135
356 340 286 286 307 306 292 322 335 343 340 3 347 321 337 35 1 338 325 312 316 318 304 298 274 353 290 308 324 325 266 275 46 44 45 11 265 30 31 64 32 317 140 42 46